Weather History for KNQA - September, 2013

Change the Weather History Date:

Sunday, September 29, 2013

  Actual Average Record
Temperature  
Mean Temperature 66 °F -  
Max Temperature 69 °F 79 °F 93 °F (1998)
Min Temperature 64 °F 57 °F 37 °F (2006)
Cooling Degree Days 2    
Growing Degree Days 16 (Base 50)    
Moisture  
Dew Point 63 °F    
Average Humidity 87    
Maximum Humidity 100    
Minimum Humidity 73    
Precipitation  
Precipitation 0.00 in - - ()
Sea Level Pressure  
Sea Level Pressure 30.01 in    
Wind  
Wind Speed 3 mph (SE)    
Max Wind Speed 6 mph    
Max Gust Speed -    
Visibility 8 miles    
Events Rain    
Averages and records for this station are not official NWS values.
T = Trace of Precipitation, MM = Missing Value Source: NWS Daily Summary

Daily Weather History Graph

Daily Weather History Graph

Search for Another Location

Airport or City:

Trip Planner

Search our weather history database for the weather conditions in past years. The results will help you decide how hot, cold, wet, or windy it might be!

Date:

Astronomy

Sep. 29, 2013 Rise Set
Actual Time 6:53 AM CDT 6:45 PM CDT
Civil Twilight 6:27 AM CDT 7:11 PM CDT
Nautical Twilight 5:58 AM CDT 7:40 PM CDT
Astronomical Twilight 5:28 AM CDT 8:10 PM CDT
Moon 1:44 AM CDT (9/29) 3:33 PM CDT (9/29)
Length of Visible Light 12h 43m
Length of Day
11h 52m
Waning Crescent, 27% of the Moon is Illuminated
Sep 29
Waning Crescent
Oct 4
New
Oct 11
First Quarter
Oct 18
Full
Oct 26
Last Quarter

Hourly Weather History & Observations

Time (CDT) Temp. Dew Point Humidity Pressure Visibility Wind Dir Wind Speed Gust Speed Precip Events Conditions
12:55 AM 69.8 °F 60.8 °F 73% 30.03 in 10.0 mi SE 4.6 mph - N/A   Overcast
1:55 AM 69.8 °F 60.8 °F 73% 30.03 in 10.0 mi SE 3.5 mph - N/A   Overcast
2:55 AM 69.8 °F 60.8 °F 73% 30.02 in 10.0 mi SE 4.6 mph - N/A   Overcast
3:15 AM 69.8 °F 60.8 °F 73% 30.02 in 10.0 mi Calm Calm - N/A   Overcast
3:35 AM 69.8 °F 60.8 °F 73% 30.02 in 10.0 mi SE 4.6 mph - N/A   Overcast
3:55 AM 69.8 °F 60.8 °F 73% 30.02 in 10.0 mi SE 3.5 mph - N/A   Overcast
4:15 AM 69.8 °F 60.8 °F 73% 30.02 in 10.0 mi SE 4.6 mph - N/A   Overcast
4:35 AM 69.8 °F 60.8 °F 73% 30.02 in 10.0 mi SE 3.5 mph - N/A   Overcast
4:55 AM 69.8 °F 60.8 °F 73% 30.02 in 10.0 mi SE 3.5 mph - N/A   Overcast
5:15 AM 69.8 °F 60.8 °F 73% 30.03 in 10.0 mi Calm Calm - N/A   Overcast
5:35 AM 68.0 °F 62.6 °F 83% 30.04 in 10.0 mi SSE 4.6 mph - N/A   Overcast
5:55 AM 66.2 °F 62.6 °F 88% 30.05 in 7.0 mi Calm Calm - N/A Rain Light Rain
6:55 AM 66.2 °F 62.6 °F 88% 30.05 in 7.0 mi ESE 3.5 mph - N/A   Overcast
7:55 AM 64.4 °F 62.6 °F 94% 30.05 in 8.0 mi ESE 3.5 mph - N/A   Overcast
8:55 AM 64.4 °F 62.6 °F 94% 30.04 in 10.0 mi ESE 4.6 mph - N/A   Overcast
9:55 AM 64.4 °F 62.6 °F 94% 30.04 in 5.0 mi SE 5.8 mph - N/A   Overcast
10:55 AM 64.4 °F 64.4 °F 100% 30.04 in 10.0 mi SE 5.8 mph - N/A   Overcast
11:55 AM 66.2 °F 64.4 °F 94% 30.03 in 4.0 mi Calm Calm - N/A Rain Light Rain
12:55 PM 66.2 °F 64.4 °F 94% 30.02 in 10.0 mi ESE 3.5 mph - N/A   Overcast
1:55 PM 69.8 °F 66.2 °F 88% 29.99 in 10.0 mi SE 5.8 mph - N/A   Overcast
2:55 PM 68.0 °F 66.2 °F 94% 29.98 in 10.0 mi SE 5.8 mph - N/A   Overcast
3:55 PM 68.0 °F 66.2 °F 94% 29.97 in 10.0 mi SE 3.5 mph - N/A   Overcast
4:55 PM 68.0 °F 66.2 °F 94% 29.97 in 10.0 mi SE 3.5 mph - N/A   Overcast
5:55 PM 66.2 °F 66.2 °F 100% 29.97 in 2.0 mi SE 3.5 mph - N/A   Overcast
6:55 PM 66.2 °F 66.2 °F 100% 29.98 in 2.0 mi Calm Calm - N/A   Overcast
7:55 PM 64.4 °F 64.4 °F 100% 29.99 in 6.0 mi Variable 3.5 mph - N/A   Overcast
8:55 PM 64.4 °F 64.4 °F 100% 29.99 in 9.0 mi Calm Calm - N/A   Overcast
9:55 PM 66.2 °F 64.4 °F 94% 29.99 in 2.5 mi Calm Calm - N/A   Overcast
10:55 PM 64.4 °F 64.4 °F 100% 29.98 in 2.5 mi SE 4.6 mph - N/A   Overcast
11:55 PM 66.2 °F 66.2 °F 100% 29.97 in 10.0 mi SSE 3.5 mph - N/A   Overcast